This is the latest recevied weather packets stored in our database for station/object K7NDG. If no packets are shown the sender has not sent any weather packets the latest 10 day(s).
| Time | Temp. | Humidity | Pressure | Rain* | Wind** | Luminosity | Snow |
|---|---|---|---|---|---|---|---|
| 1777743384 | 15.56° C | 77% | 1017.2 hPa | 0 mm | - | 492 W/m² | - |
| 1777743082 | 15° C | 75% | 1017.5 hPa | 0 mm | - | 482 W/m² | - |
| 1777742779 | 15° C | 77% | 1017.5 hPa | 0 mm | - | 486 W/m² | - |
| 1777742476 | 14.44° C | 79% | 1017.4 hPa | 0 mm | - | 444 W/m² | - |
| 1777742171 | 14.44° C | 79% | 1017.5 hPa | 0 mm | - | 456 W/m² | - |
| 1777741869 | 13.89° C | 78% | 1017.4 hPa | 0 mm | - | 401 W/m² | - |
| 1777741565 | 13.89° C | 80% | 1017.7 hPa | 0 mm | - | 374 W/m² | - |
| 1777741263 | 13.89° C | 81% | 1017.8 hPa | 0 mm | - | 423 W/m² | - |
| 1777740959 | 13.33° C | 82% | 1017.7 hPa | 0 mm | - | 401 W/m² | - |
| 1777740656 | 12.78° C | 83% | 1017.7 hPa | 0 mm | - | 190 W/m² | - |
| 1777740352 | 12.78° C | 83% | 1017.8 hPa | 0 mm | - | 188 W/m² | - |
| 1777740049 | 12.22° C | 84% | 1017.7 hPa | 0 mm | - | 196 W/m² | - |
| 1777739745 | 12.22° C | 83% | 1017.7 hPa | 0 mm | - | 223 W/m² | - |
| 1777739442 | 12.22° C | 84% | 1017.8 hPa | 0 mm | - | 157 W/m² | - |
| 1777739139 | 12.22° C | 84% | 1017.8 hPa | 0 mm | - | 153 W/m² | - |
| 1777738836 | 11.67° C | 85% | 1017.6 hPa | 0 mm | - | 142 W/m² | - |
| 1777738532 | 11.67° C | 85% | 1017.9 hPa | 0 mm | - | 131 W/m² | - |
| 1777738230 | 11.67° C | 86% | 1017.9 hPa | 0 mm | - | 116 W/m² | - |
| 1777737928 | 11.67° C | 86% | 1017.8 hPa | 0 mm | - | 105 W/m² | - |
| 1777737626 | 11.67° C | 86% | 1017.7 hPa | 0 mm | - | 104 W/m² | - |
| 1777737325 | 11.67° C | 87% | 1017.9 hPa | 0 mm | - | 95 W/m² | - |
| 1777737021 | 11.11° C | 88% | 1017.9 hPa | 0 mm | - | 93 W/m² | - |
| 1777736717 | 11.11° C | 88% | 1017.8 hPa | 0 mm | - | 82 W/m² | - |
| 1777736078 | 11.11° C | 88% | 1017.6 hPa | 0 mm | - | 75 W/m² | - |
| 1777735775 | 11.11° C | 88% | 1017.6 hPa | 0 mm | - | 69 W/m² | - |
* Rain latest hour (hover to see other rain measurements)
** Current wind speed in m/s (hover to see current wind gust speed)